Roanoke, VA

11:29 AM EST on November 12, 2019 (GMT -0500)
Roanoke Regional-Woodrum

Weather History for KROA - September, 2019

Change the Weather History Date:

Sunday, September 29, 2019

  Actual Average Record
Temperature  
Mean Temperature 80 °F 63 °F  
Max Temperature 92 °F 74 °F 93 °F (1953)
Min Temperature 67 °F 52 °F 32 °F (1942)
Degree Days  
Heating Degree Days 0 4  
Month to date heating degree days 1 42  
Since 1 July heating degree days 1 43  
Cooling Degree Days 15 2  
Month to date cooling degree days 308 137  
Year to date cooling degree days 1671 1184  
Growing Degree Days 28 (Base 50)    
Moisture  
Dew Point 67 °F    
Average Humidity 69    
Maximum Humidity 97    
Minimum Humidity 41    
Precipitation  
Precipitation 0.00 in 0.12 in 3.45 in (1924)
Month to date precipitation 1.31 3.77  
Year to date precipitation 32.01 31.90  
Snow  
Snow 0.00 in - - ()
Month to date snowfall 0.0  
Since 1 July snowfall T  
Since 1 September snowfall 0.0  
Snow Depth 0.00 in    
Sea Level Pressure  
Sea Level Pressure 30.20 in    
Wind  
Wind Speed 3 mph (East)    
Max Wind Speed 12 mph    
Max Gust Speed 13 mph    
Visibility 10 miles    
Events      
T = Trace of Precipitation, MM = Missing Value Source: NWS Daily Summary

Daily Weather History Graph

Daily Weather History Graph

Search for Another Location

Airport or City:

Astronomy

Sep. 29, 2019 Rise Set
Actual Time 7:13 AM EDT 7:06 PM EDT
Civil Twilight 6:47 AM EDT 7:32 PM EDT
Nautical Twilight 6:17 AM EDT 8:02 PM EDT
Astronomical Twilight 5:46 AM EDT 8:33 PM EDT
Moon 8:02 AM EDT (9/29) 8:06 PM EDT (9/29)
Length of Visible Light 12h 45m
Length of Day
11h 53m
New Moon, 1% of the Moon is Illuminated
Sep 29
New Moon
Oct 5
First Quarter
Oct 13
Full
Oct 21
Last Quarter
Oct 27
New

Hourly Weather History & Observations

Time (EDT) Temp. Heat Index Dew Point Humidity Pressure Visibility Wind Dir Wind Speed Gust Speed Precip Events Conditions
12:54 AM 70.0 °F - 68.0 °F 93% 30.17 in 10.0 mi Calm Calm - N/A   Clear
1:54 AM 71.1 °F - 68.0 °F 90% 30.17 in 10.0 mi NNE 5.8 mph - N/A   Clear
2:54 AM 69.1 °F - 66.9 °F 93% 30.18 in 10.0 mi North 4.6 mph - N/A   Clear
3:54 AM 69.1 °F - 66.9 °F 93% 30.17 in 10.0 mi Calm Calm - N/A   Clear
4:54 AM 69.1 °F - 66.9 °F 93% 30.18 in 10.0 mi NNE 3.5 mph - N/A   Clear
5:54 AM 69.1 °F - 66.9 °F 93% 30.19 in 10.0 mi Calm Calm - N/A   Clear
6:54 AM 70.0 °F - 66.9 °F 90% 30.21 in 10.0 mi NNE 4.6 mph - N/A   Partly Cloudy
7:54 AM 71.1 °F - 66.9 °F 87% 30.23 in 10.0 mi NNE 8.1 mph - N/A   Partly Cloudy
8:54 AM 73.0 °F - 68.0 °F 84% 30.25 in 10.0 mi NE 5.8 mph - N/A   Scattered Clouds
9:54 AM 78.1 °F - 69.1 °F 74% 30.25 in 10.0 mi Calm Calm - N/A   Partly Cloudy
10:54 AM 81.0 °F 84.1 °F 69.1 °F 67% 30.26 in 10.0 mi Calm Calm - N/A   Partly Cloudy
11:54 AM 82.0 °F 84.9 °F 68.0 °F 62% 30.25 in 10.0 mi East 3.5 mph - N/A   Partly Cloudy
12:54 PM 86.0 °F 90.1 °F 69.1 °F 57% 30.22 in 10.0 mi Calm Calm - N/A   Partly Cloudy
1:54 PM 89.1 °F 92.1 °F 66.9 °F 48% 30.19 in 10.0 mi Variable 4.6 mph - N/A   Scattered Clouds
2:54 PM 89.1 °F 90.0 °F 63.0 °F 42% 30.18 in 10.0 mi SSE 4.6 mph - N/A   Mostly Cloudy
3:54 PM 91.0 °F 92.6 °F 64.0 °F 41% 30.15 in 10.0 mi East 4.6 mph - N/A   Partly Cloudy
4:54 PM 90.0 °F 91.7 °F 64.9 °F 43% 30.14 in 10.0 mi South 8.1 mph - N/A   Scattered Clouds
5:54 PM 88.0 °F 89.6 °F 64.9 °F 46% 30.15 in 10.0 mi South 6.9 mph - N/A   Mostly Cloudy
6:54 PM 86.0 °F 87.6 °F 64.9 °F 49% 30.16 in 10.0 mi WSW 3.5 mph - N/A   Scattered Clouds
7:54 PM 84.0 °F 86.5 °F 66.9 °F 56% 30.17 in 10.0 mi Calm Calm - N/A   Mostly Cloudy
8:54 PM 80.1 °F 82.9 °F 69.1 °F 69% 30.21 in 10.0 mi SW 6.9 mph - N/A   Mostly Cloudy
9:54 PM 77.0 °F - 66.0 °F 69% 30.23 in 10.0 mi SE 6.9 mph - N/A   Mostly Cloudy
10:54 PM 75.9 °F - 66.0 °F 71% 30.24 in 10.0 mi Variable 3.5 mph - N/A   Scattered Clouds
11:54 PM 75.0 °F - 66.0 °F 73% 30.24 in 10.0 mi Calm Calm - N/A   Mostly Cloudy